Time,TemperatureF,DewpointF,PressureIn,WindDirection,WindDirectionDegrees,WindSpeedMPH,WindSpeedGustMPH,Humidity,HourlyPrecipIn,Conditions,Clouds,dailyrainin,SolarRadiationWatts/m^2,SoftwareType,DateUTC
2013-01-31 00:02:00,34.6,24.4,30.36,NNE,25,0.0,1.0,66,0.00,,,0.00,0,Wunderground v.1.15,2013-01-31 07:02:00,
2013-01-31 00:08:00,34.5,24.3,30.35,NE,37,4.0,4.0,66,0.00,,,0.00,0,Wunderground v.1.15,2013-01-31 07:08:00,
2013-01-31 00:14:00,35.0,24.8,30.36,NNE,29,2.0,5.0,66,0.00,,,0.00,0,Wunderground v.1.15,2013-01-31 07:14:00,
2013-01-31 00:20:00,35.3,24.7,30.35,NNE,14,10.0,10.0,65,0.00,,,0.00,0,Wunderground v.1.15,2013-01-31 07:20:00,
2013-01-31 00:26:00,35.2,25.0,30.35,North,360,3.0,10.0,66,0.00,,,0.00,0,Wunderground v.1.15,2013-01-31 07:26:00,
2013-01-31 00:31:00,35.0,24.8,30.35,NNE,16,4.0,5.0,66,0.00,,,0.00,0,Wunderground v.1.15,2013-01-31 07:31:00,
2013-01-31 00:37:00,34.7,24.5,30.35,NNE,16,0.0,5.0,66,0.00,,,0.00,0,Wunderground v.1.15,2013-01-31 07:37:00,
2013-01-31 00:43:00,34.6,24.4,30.35,NNE,18,0.0,2.0,66,0.00,,,0.00,0,Wunderground v.1.15,2013-01-31 07:43:00,
2013-01-31 00:48:00,34.4,24.6,30.35,NNE,18,0.0,2.0,67,0.00,,,0.00,0,Wunderground v.1.15,2013-01-31 07:48:00,
2013-01-31 00:54:00,34.4,24.2,30.35,NE,39,0.0,5.0,66,0.00,,,0.00,0,Wunderground v.1.15,2013-01-31 07:54:00,
2013-01-31 00:59:00,34.1,24.3,30.35,NE,39,0.0,5.0,67,0.00,,,0.00,0,Wunderground v.1.15,2013-01-31 07:59:00,
2013-01-31 01:05:00,33.6,23.8,30.35,NE,39,0.0,0.0,67,0.00,,,0.00,0,Wunderground v.1.15,2013-01-31 08:05:00,
2013-01-31 01:11:00,32.7,23.3,30.35,NE,39,0.0,0.0,68,0.00,,,0.00,0,Wunderground v.1.15,2013-01-31 08:11:00,
2013-01-31 01:17:00,33.0,23.9,30.35,NE,39,0.0,0.0,69,0.00,,,0.00,0,Wunderground v.1.15,2013-01-31 08:17:00,
2013-01-31 01:23:00,33.4,24.0,30.35,NE,39,0.0,0.0,68,0.00,,,0.00,0,Wunderground v.1.15,2013-01-31 08:23:00,
2013-01-31 01:29:00,34.3,24.5,30.35,NE,39,0.0,0.0,67,0.00,,,0.00,0,Wunderground v.1.15,2013-01-31 08:29:00,
2013-01-31 01:35:00,34.4,23.8,30.35,NE,38,0.0,0.0,65,0.00,,,0.00,0,Wunderground v.1.15,2013-01-31 08:35:00,
2013-01-31 01:41:00,31.0,21.3,30.35,NE,38,0.0,0.0,67,0.00,,,0.00,0,Wunderground v.1.15,2013-01-31 08:41:00,
2013-01-31 01:47:00,29.5,20.9,30.35,NE,38,0.0,0.0,70,0.00,,,0.00,0,Wunderground v.1.15,2013-01-31 08:47:00,
2013-01-31 01:52:00,28.2,20.3,30.35,NE,39,0.0,0.0,72,0.00,,,0.00,0,Wunderground v.1.15,2013-01-31 08:52:00,
2013-01-31 01:58:00,26.2,19.0,30.35,NE,39,0.0,0.0,74,0.00,,,0.00,0,Wunderground v.1.15,2013-01-31 08:58:00,
2013-01-31 02:03:00,25.3,19.1,30.36,NE,39,0.0,0.0,77,0.00,,,0.00,0,Wunderground v.1.15,2013-01-31 09:03:00,
2013-01-31 02:09:00,25.1,19.5,30.36,NE,39,0.0,0.0,79,0.00,,,0.00,0,Wunderground v.1.15,2013-01-31 09:09:00,
2013-01-31 02:14:00,25.4,20.1,30.36,NE,39,0.0,0.0,80,0.00,,,0.00,0,Wunderground v.1.15,2013-01-31 09:14:00,
2013-01-31 02:19:00,25.5,20.2,30.36,NE,39,0.0,0.0,80,0.00,,,0.00,0,Wunderground v.1.15,2013-01-31 09:19:00,
2013-01-31 02:24:00,25.3,20.0,30.36,NE,39,0.0,0.0,80,0.00,,,0.00,0,Wunderground v.1.15,2013-01-31 09:24:00,
2013-01-31 02:29:00,24.9,19.6,30.36,NE,39,0.0,0.0,80,0.00,,,0.00,0,Wunderground v.1.15,2013-01-31 09:29:00,
2013-01-31 02:34:00,24.7,19.7,30.36,NE,38,0.0,0.0,81,0.00,,,0.00,0,Wunderground v.1.15,2013-01-31 09:34:00,
2013-01-31 02:39:00,24.3,19.3,30.36,NE,39,0.0,0.0,81,0.00,,,0.00,0,Wunderground v.1.15,2013-01-31 09:39:00,
2013-01-31 02:44:00,24.4,19.7,30.37,NE,38,0.0,0.0,82,0.00,,,0.00,0,Wunderground v.1.15,2013-01-31 09:44:00,
2013-01-31 02:49:00,24.5,19.8,30.37,NE,39,0.0,0.0,82,0.00,,,0.00,0,Wunderground v.1.15,2013-01-31 09:49:00,
2013-01-31 02:54:00,24.3,19.3,30.37,NE,39,0.0,0.0,81,0.00,,,0.00,0,Wunderground v.1.15,2013-01-31 09:54:00,
2013-01-31 02:59:00,23.9,18.9,30.37,NE,39,0.0,0.0,81,0.00,,,0.00,0,Wunderground v.1.15,2013-01-31 09:59:00,
2013-01-31 03:04:00,23.8,19.1,30.37,NE,39,0.0,0.0,82,0.00,,,0.00,0,Wunderground v.1.15,2013-01-31 10:04:00,
2013-01-31 03:09:00,23.6,18.9,30.37,NE,39,0.0,0.0,82,0.00,,,0.00,0,Wunderground v.1.15,2013-01-31 10:09:00,
2013-01-31 03:14:00,23.8,19.4,30.37,NE,38,0.0,0.0,83,0.00,,,0.00,0,Wunderground v.1.15,2013-01-31 10:14:00,
2013-01-31 03:19:00,23.7,19.3,30.36,NE,39,0.0,0.0,83,0.00,,,0.00,0,Wunderground v.1.15,2013-01-31 10:19:00,
2013-01-31 03:24:00,23.4,19.0,30.37,NE,39,0.0,0.0,83,0.00,,,0.00,0,Wunderground v.1.15,2013-01-31 10:24:00,
2013-01-31 03:29:00,23.0,18.6,30.37,NE,38,0.0,0.0,83,0.00,,,0.00,0,Wunderground v.1.15,2013-01-31 10:29:00,
2013-01-31 03:34:00,22.7,18.3,30.37,NE,39,0.0,0.0,83,0.00,,,0.00,0,Wunderground v.1.15,2013-01-31 10:34:00,
2013-01-31 03:39:00,22.5,18.1,30.37,NE,39,0.0,0.0,83,0.00,,,0.00,0,Wunderground v.1.15,2013-01-31 10:39:00,
2013-01-31 03:44:00,22.4,18.0,30.37,NE,39,0.0,0.0,83,0.00,,,0.00,0,Wunderground v.1.15,2013-01-31 10:44:00,
2013-01-31 03:49:00,22.4,18.3,30.37,NE,38,0.0,0.0,84,0.00,,,0.00,0,Wunderground v.1.15,2013-01-31 10:49:00,
2013-01-31 03:54:00,22.3,18.2,30.37,NE,39,0.0,0.0,84,0.00,,,0.00,0,Wunderground v.1.15,2013-01-31 10:54:00,
2013-01-31 03:59:00,22.4,18.3,30.37,NE,39,0.0,0.0,84,0.00,,,0.00,0,Wunderground v.1.15,2013-01-31 10:59:00,
2013-01-31 04:04:00,22.3,18.2,30.37,NE,39,0.0,0.0,84,0.00,,,0.00,0,Wunderground v.1.15,2013-01-31 11:04:00,
2013-01-31 04:09:00,22.2,18.1,30.37,NE,39,0.0,0.0,84,0.00,,,0.00,0,Wunderground v.1.15,2013-01-31 11:09:00,
2013-01-31 04:14:00,21.6,17.5,30.36,NE,39,0.0,0.0,84,0.00,,,0.00,0,Wunderground v.1.15,2013-01-31 11:14:00,
2013-01-31 04:19:00,21.0,16.6,30.37,NE,39,0.0,0.0,83,0.00,,,0.00,0,Wunderground v.1.15,2013-01-31 11:19:00,
2013-01-31 04:24:00,20.6,16.5,30.36,NE,38,0.0,0.0,84,0.00,,,0.00,0,Wunderground v.1.15,2013-01-31 11:24:00,
2013-01-31 04:29:00,20.4,16.3,30.37,NE,38,0.0,0.0,84,0.00,,,0.00,0,Wunderground v.1.15,2013-01-31 11:29:00,
2013-01-31 04:34:00,20.3,16.2,30.37,NE,39,0.0,0.0,84,0.00,,,0.00,0,Wunderground v.1.15,2013-01-31 11:34:00,
2013-01-31 04:39:00,20.3,16.5,30.37,NE,39,0.0,0.0,85,0.00,,,0.00,0,Wunderground v.1.15,2013-01-31 11:39:00,
2013-01-31 04:44:00,20.3,16.5,30.37,NE,39,0.0,0.0,85,0.00,,,0.00,0,Wunderground v.1.15,2013-01-31 11:44:00,
2013-01-31 04:50:00,20.5,16.7,30.36,NE,39,0.0,0.0,85,0.00,,,0.00,0,Wunderground v.1.15,2013-01-31 11:50:00,
2013-01-31 04:55:00,20.8,17.0,30.36,NE,39,0.0,0.0,85,0.00,,,0.00,0,Wunderground v.1.15,2013-01-31 11:55:00,
2013-01-31 05:00:00,20.8,17.0,30.37,NE,39,0.0,0.0,85,0.00,,,0.00,0,Wunderground v.1.15,2013-01-31 12:00:00,
2013-01-31 05:05:00,20.7,16.9,30.36,NE,39,0.0,0.0,85,0.00,,,0.00,0,Wunderground v.1.15,2013-01-31 12:05:00,
2013-01-31 05:10:00,20.6,16.8,30.37,NE,38,0.0,0.0,85,0.00,,,0.00,0,Wunderground v.1.15,2013-01-31 12:10:00,
2013-01-31 05:15:00,20.6,16.8,30.36,NE,39,0.0,0.0,85,0.00,,,0.00,0,Wunderground v.1.15,2013-01-31 12:15:00,
2013-01-31 05:20:00,20.6,16.8,30.36,NE,39,0.0,0.0,85,0.00,,,0.00,0,Wunderground v.1.15,2013-01-31 12:20:00,
2013-01-31 05:25:00,20.1,16.3,30.36,NE,39,0.0,0.0,85,0.00,,,0.00,0,Wunderground v.1.15,2013-01-31 12:25:00,
2013-01-31 05:30:00,19.7,15.9,30.36,NE,38,0.0,0.0,85,0.00,,,0.00,0,Wunderground v.1.15,2013-01-31 12:30:00,
2013-01-31 05:35:00,19.2,15.4,30.36,NE,38,0.0,0.0,85,0.00,,,0.00,0,Wunderground v.1.15,2013-01-31 12:35:00,
2013-01-31 05:40:00,19.0,15.2,30.36,NE,39,0.0,0.0,85,0.00,,,0.00,0,Wunderground v.1.15,2013-01-31 12:40:00,
2013-01-31 05:45:00,18.8,15.0,30.36,NE,39,0.0,0.0,85,0.00,,,0.00,0,Wunderground v.1.15,2013-01-31 12:45:00,
2013-01-31 05:50:00,18.3,14.5,30.36,NE,39,0.0,0.0,85,0.00,,,0.00,0,Wunderground v.1.15,2013-01-31 12:50:00,
2013-01-31 05:55:00,17.9,14.2,30.36,NE,38,0.0,0.0,85,0.00,,,0.00,0,Wunderground v.1.15,2013-01-31 12:55:00,
2013-01-31 06:00:00,17.5,13.8,30.36,NE,39,0.0,0.0,85,0.00,,,0.00,0,Wunderground v.1.15,2013-01-31 13:00:00,
2013-01-31 06:05:00,17.7,14.0,30.36,NE,39,0.0,0.0,85,0.00,,,0.00,0,Wunderground v.1.15,2013-01-31 13:05:00,
2013-01-31 06:10:00,17.8,14.3,30.36,NE,38,0.0,0.0,86,0.00,,,0.00,0,Wunderground v.1.15,2013-01-31 13:10:00,
2013-01-31 06:15:00,18.1,14.6,30.36,NE,38,0.0,0.0,86,0.00,,,0.00,0,Wunderground v.1.15,2013-01-31 13:15:00,
2013-01-31 06:20:00,18.3,14.8,30.35,NE,39,0.0,0.0,86,0.00,,,0.00,0,Wunderground v.1.15,2013-01-31 13:20:00,
2013-01-31 06:26:00,18.3,14.8,30.35,NE,39,0.0,0.0,86,0.00,,,0.00,0,Wunderground v.1.15,2013-01-31 13:26:00,
2013-01-31 06:31:00,18.2,14.7,30.36,NE,38,0.0,0.0,86,0.00,,,0.00,0,Wunderground v.1.15,2013-01-31 13:31:00,
2013-01-31 06:36:00,18.2,14.7,30.36,NE,38,0.0,0.0,86,0.00,,,0.00,0,Wunderground v.1.15,2013-01-31 13:36:00,
2013-01-31 06:41:00,18.4,14.9,30.36,NE,39,0.0,0.0,86,0.00,,,0.00,0,Wunderground v.1.15,2013-01-31 13:41:00,
2013-01-31 06:46:00,18.3,14.8,30.36,NE,39,0.0,0.0,86,0.00,,,0.00,0,Wunderground v.1.15,2013-01-31 13:46:00,
2013-01-31 06:51:00,18.1,14.6,30.36,NE,38,0.0,0.0,86,0.00,,,0.00,0,Wunderground v.1.15,2013-01-31 13:51:00,
2013-01-31 06:56:00,17.8,14.1,30.36,NE,39,0.0,0.0,85,0.00,,,0.00,0,Wunderground v.1.15,2013-01-31 13:56:00,
2013-01-31 07:01:00,17.0,13.3,30.36,NE,39,0.0,0.0,85,0.00,,,0.00,0,Wunderground v.1.15,2013-01-31 14:01:00,
2013-01-31 07:06:00,16.3,12.3,30.36,NE,39,0.0,0.0,84,0.00,,,0.00,0,Wunderground v.1.15,2013-01-31 14:06:00,
2013-01-31 07:12:00,15.9,12.2,30.36,NE,39,0.0,0.0,85,0.00,,,0.00,0,Wunderground v.1.15,2013-01-31 14:12:00,
2013-01-31 07:17:00,15.9,12.2,30.36,NE,38,0.0,0.0,85,0.00,,,0.00,0,Wunderground v.1.15,2013-01-31 14:17:00,
2013-01-31 07:22:00,16.0,12.3,30.37,NE,39,0.0,0.0,85,0.00,,,0.00,0,Wunderground v.1.15,2013-01-31 14:22:00,
2013-01-31 07:27:00,16.2,12.7,30.37,NE,39,0.0,0.0,86,0.00,,,0.00,5,Wunderground v.1.15,2013-01-31 14:27:00,
2013-01-31 07:32:00,16.3,12.8,30.37,NE,39,0.0,0.0,86,0.00,,,0.00,7,Wunderground v.1.15,2013-01-31 14:32:00,
2013-01-31 07:37:00,16.2,12.5,30.37,NE,38,0.0,0.0,85,0.00,,,0.00,9,Wunderground v.1.15,2013-01-31 14:37:00,
2013-01-31 07:42:00,16.1,12.4,30.37,NE,39,0.0,0.0,85,0.00,,,0.00,11,Wunderground v.1.15,2013-01-31 14:42:00,
2013-01-31 07:47:00,16.4,12.9,30.37,NE,39,0.0,0.0,86,0.00,,,0.00,16,Wunderground v.1.15,2013-01-31 14:47:00,
2013-01-31 07:52:00,16.9,13.4,30.38,NE,38,0.0,0.0,86,0.00,,,0.00,23,Wunderground v.1.15,2013-01-31 14:52:00,
2013-01-31 07:57:00,17.5,14.0,30.37,NE,39,0.0,0.0,86,0.00,,,0.00,40,Wunderground v.1.15,2013-01-31 14:57:00,
2013-01-31 08:02:00,18.1,14.6,30.38,NE,39,0.0,0.0,86,0.00,,,0.00,62,Wunderground v.1.15,2013-01-31 15:02:00,
2013-01-31 08:07:00,19.1,15.9,30.38,NE,39,0.0,0.0,87,0.00,,,0.00,83,Wunderground v.1.15,2013-01-31 15:07:00,
2013-01-31 08:12:00,19.8,16.6,30.38,NE,38,0.0,0.0,87,0.00,,,0.00,98,Wunderground v.1.15,2013-01-31 15:12:00,
2013-01-31 08:17:00,20.3,17.0,30.38,NE,39,0.0,0.0,87,0.00,,,0.00,116,Wunderground v.1.15,2013-01-31 15:17:00,
2013-01-31 08:22:00,20.9,17.4,30.38,NE,39,0.0,0.0,86,0.00,,,0.00,135,Wunderground v.1.15,2013-01-31 15:22:00,
2013-01-31 08:27:00,21.7,18.4,30.39,NE,38,0.0,0.0,87,0.00,,,0.00,153,Wunderground v.1.15,2013-01-31 15:27:00,
2013-01-31 08:32:00,22.8,19.5,30.39,NE,39,0.0,0.0,87,0.00,,,0.00,193,Wunderground v.1.15,2013-01-31 15:32:00,
2013-01-31 08:37:00,23.8,20.5,30.39,NE,39,0.0,0.0,87,0.00,,,0.00,216,Wunderground v.1.15,2013-01-31 15:37:00,
2013-01-31 08:42:00,24.9,21.6,30.39,NE,38,0.0,0.0,87,0.00,,,0.00,218,Wunderground v.1.15,2013-01-31 15:42:00,
2013-01-31 08:47:00,25.8,22.2,30.40,NE,39,0.0,0.0,86,0.00,,,0.00,229,Wunderground v.1.15,2013-01-31 15:47:00,
2013-01-31 08:52:00,27.0,23.4,30.39,NE,38,0.0,0.0,86,0.00,,,0.00,237,Wunderground v.1.15,2013-01-31 15:52:00,
2013-01-31 08:57:00,28.3,24.6,30.39,NE,39,0.0,0.0,86,0.00,,,0.00,253,Wunderground v.1.15,2013-01-31 15:57:00,
2013-01-31 09:02:00,30.2,26.2,30.39,NE,39,0.0,0.0,85,0.00,,,0.00,269,Wunderground v.1.15,2013-01-31 16:02:00,
2013-01-31 09:07:00,31.4,26.5,30.40,NE,39,0.0,0.0,82,0.00,,,0.00,281,Wunderground v.1.15,2013-01-31 16:07:00,
2013-01-31 09:12:00,32.0,26.8,30.40,NE,38,0.0,0.0,81,0.00,,,0.00,301,Wunderground v.1.15,2013-01-31 16:12:00,
2013-01-31 09:17:00,33.2,27.7,30.40,NE,39,0.0,0.0,80,0.00,,,0.00,316,Wunderground v.1.15,2013-01-31 16:17:00,
2013-01-31 09:22:00,34.7,28.5,30.39,NE,38,0.0,0.0,78,0.00,,,0.00,332,Wunderground v.1.15,2013-01-31 16:22:00,
2013-01-31 09:27:00,36.0,28.8,30.39,NE,39,0.0,0.0,75,0.00,,,0.00,348,Wunderground v.1.15,2013-01-31 16:27:00,
2013-01-31 09:32:00,37.1,28.6,30.39,NE,38,0.0,0.0,71,0.00,,,0.00,362,Wunderground v.1.15,2013-01-31 16:32:00,
2013-01-31 09:37:00,38.3,29.0,30.39,NE,38,0.0,0.0,69,0.00,,,0.00,376,Wunderground v.1.15,2013-01-31 16:37:00,
2013-01-31 09:43:00,39.3,28.9,30.39,NE,39,0.0,0.0,66,0.00,,,0.00,390,Wunderground v.1.15,2013-01-31 16:43:00,
2013-01-31 09:48:00,39.5,27.9,30.39,NE,44,0.0,0.0,63,0.00,,,0.00,403,Wunderground v.1.15,2013-01-31 16:48:00,
2013-01-31 09:53:00,39.8,27.8,30.39,NE,46,0.0,0.0,62,0.00,,,0.00,415,Wunderground v.1.15,2013-01-31 16:53:00,
2013-01-31 09:58:00,40.3,28.7,30.38,NE,46,0.0,0.0,63,0.00,,,0.00,427,Wunderground v.1.15,2013-01-31 16:58:00,
2013-01-31 10:03:00,40.4,27.6,30.38,East,94,2.0,3.0,60,0.00,,,0.00,441,Wunderground v.1.15,2013-01-31 17:03:00,
2013-01-31 10:08:00,40.2,27.4,30.38,East,88,0.0,5.0,60,0.00,,,0.00,454,Wunderground v.1.15,2013-01-31 17:08:00,
2013-01-31 10:13:00,40.7,27.9,30.38,East,91,3.0,3.0,60,0.00,,,0.00,464,Wunderground v.1.15,2013-01-31 17:13:00,
2013-01-31 10:18:00,41.1,27.9,30.38,East,91,0.0,3.0,59,0.00,,,0.00,476,Wunderground v.1.15,2013-01-31 17:18:00,
2013-01-31 10:23:00,41.4,26.0,30.38,East,82,2.0,3.0,54,0.00,,,0.00,487,Wunderground v.1.15,2013-01-31 17:23:00,
2013-01-31 10:29:00,41.7,28.0,30.38,ESE,105,0.0,3.0,58,0.00,,,0.00,497,Wunderground v.1.15,2013-01-31 17:29:00,
2013-01-31 10:34:00,42.0,27.0,30.37,ESE,102,5.0,5.0,55,0.00,,,0.00,510,Wunderground v.1.15,2013-01-31 17:34:00,
2013-01-31 10:39:00,42.0,27.0,30.37,East,91,4.0,7.0,55,0.00,,,0.00,519,Wunderground v.1.15,2013-01-31 17:39:00,
2013-01-31 10:44:00,42.2,26.7,30.37,East,90,4.0,4.0,54,0.00,,,0.00,526,Wunderground v.1.15,2013-01-31 17:44:00,
2013-01-31 10:49:00,42.2,26.7,30.38,East,82,1.0,7.0,54,0.00,,,0.00,536,Wunderground v.1.15,2013-01-31 17:49:00,
2013-01-31 10:54:00,42.4,26.9,30.37,East,80,0.0,8.0,54,0.00,,,0.00,545,Wunderground v.1.15,2013-01-31 17:54:00,
2013-01-31 10:59:00,42.5,27.0,30.37,East,88,2.0,8.0,54,0.00,,,0.00,552,Wunderground v.1.15,2013-01-31 17:59:00,
2013-01-31 11:04:00,42.5,26.6,30.37,ENE,68,3.0,7.0,53,0.00,,,0.00,559,Wunderground v.1.15,2013-01-31 18:04:00,
2013-01-31 11:09:00,42.5,26.6,30.37,ENE,75,2.0,10.0,53,0.00,,,0.00,566,Wunderground v.1.15,2013-01-31 18:09:00,
2013-01-31 11:14:00,42.4,26.5,30.37,ENE,70,0.0,10.0,53,0.00,,,0.00,573,Wunderground v.1.15,2013-01-31 18:14:00,
2013-01-31 11:19:00,42.2,26.7,30.37,ESE,102,4.0,10.0,54,0.00,,,0.00,580,Wunderground v.1.15,2013-01-31 18:19:00,
2013-01-31 11:24:00,42.3,27.3,30.38,ESE,112,0.0,7.0,55,0.00,,,0.00,584,Wunderground v.1.15,2013-01-31 18:24:00,
2013-01-31 11:29:00,42.7,28.1,30.38,East,87,3.0,8.0,56,0.00,,,0.00,591,Wunderground v.1.15,2013-01-31 18:29:00,
2013-01-31 11:34:00,42.9,26.9,30.37,ENE,72,5.0,8.0,53,0.00,,,0.00,596,Wunderground v.1.15,2013-01-31 18:34:00,
2013-01-31 11:39:00,43.0,26.6,30.37,East,90,4.0,8.0,52,0.00,,,0.00,601,Wunderground v.1.15,2013-01-31 18:39:00,
2013-01-31 11:44:00,43.4,26.0,30.37,ENE,67,3.0,9.0,50,0.00,,,0.00,606,Wunderground v.1.15,2013-01-31 18:44:00,
2013-01-31 11:49:00,43.5,26.1,30.37,East,95,2.0,9.0,50,0.00,,,0.00,610,Wunderground v.1.15,2013-01-31 18:49:00,
2013-01-31 11:54:00,43.8,26.8,30.37,ENE,78,7.0,9.0,51,0.00,,,0.00,613,Wunderground v.1.15,2013-01-31 18:54:00,
2013-01-31 11:59:00,43.5,26.1,30.36,East,101,0.0,9.0,50,0.00,,,0.00,615,Wunderground v.1.15,2013-01-31 18:59:00,
2013-01-31 12:04:00,43.7,26.3,30.36,East,99,0.0,7.0,50,0.00,,,0.00,617,Wunderground v.1.15,2013-01-31 19:04:00,
2013-01-31 12:09:00,44.1,26.6,30.36,East,88,0.0,7.0,50,0.00,,,0.00,621,Wunderground v.1.15,2013-01-31 19:09:00,
2013-01-31 12:14:00,44.4,26.4,30.36,ESE,103,0.0,6.0,49,0.00,,,0.00,622,Wunderground v.1.15,2013-01-31 19:14:00,
2013-01-31 12:19:00,44.5,26.0,30.35,East,85,7.0,7.0,48,0.00,,,0.00,624,Wunderground v.1.15,2013-01-31 19:19:00,
2013-01-31 12:24:00,44.8,23.6,30.36,East,87,0.0,12.0,43,0.00,,,0.00,624,Wunderground v.1.15,2013-01-31 19:24:00,
2013-01-31 12:29:00,45.0,26.0,30.36,East,86,3.0,12.0,47,0.00,,,0.00,624,Wunderground v.1.15,2013-01-31 19:29:00,
2013-01-31 12:35:00,45.4,26.3,30.35,ESE,123,0.0,7.0,47,0.00,,,0.00,624,Wunderground v.1.15,2013-01-31 19:35:00,
2013-01-31 12:40:00,45.3,26.7,30.36,East,99,2.0,7.0,48,0.00,,,0.00,624,Wunderground v.1.15,2013-01-31 19:40:00,
2013-01-31 12:44:00,45.0,26.0,30.35,East,101,0.0,6.0,47,0.00,,,0.00,624,Wunderground v.1.15,2013-01-31 19:44:00,
2013-01-31 12:50:00,45.1,26.1,30.35,SE,130,3.0,10.0,47,0.00,,,0.00,622,Wunderground v.1.15,2013-01-31 19:50:00,
2013-01-31 12:55:00,45.3,26.7,30.35,East,94,9.0,10.0,48,0.00,,,0.00,621,Wunderground v.1.15,2013-01-31 19:55:00,
2013-01-31 13:00:00,45.4,27.3,30.35,ESE,105,0.0,4.0,49,0.00,,,0.00,617,Wunderground v.1.15,2013-01-31 20:00:00,
2013-01-31 13:05:00,45.4,25.8,30.35,East,101,6.0,7.0,46,0.00,,,0.00,615,Wunderground v.1.15,2013-01-31 20:05:00,
2013-01-31 13:10:00,45.4,26.8,30.34,ESE,122,2.0,2.0,48,0.00,,,0.00,613,Wunderground v.1.15,2013-01-31 20:10:00,
2013-01-31 13:15:00,45.5,25.9,30.34,SE,136,0.0,7.0,46,0.00,,,0.00,610,Wunderground v.1.15,2013-01-31 20:15:00,
2013-01-31 13:20:00,45.7,26.6,30.34,ESE,109,2.0,3.0,47,0.00,,,0.00,605,Wunderground v.1.15,2013-01-31 20:20:00,
2013-01-31 13:25:00,45.7,26.1,30.34,ESE,117,4.0,9.0,46,0.00,,,0.00,601,Wunderground v.1.15,2013-01-31 20:25:00,
2013-01-31 13:30:00,45.8,26.2,30.35,ESE,123,9.0,9.0,46,0.00,,,0.00,596,Wunderground v.1.15,2013-01-31 20:30:00,
2013-01-31 13:35:00,45.9,26.8,30.35,ESE,117,0.0,9.0,47,0.00,,,0.00,589,Wunderground v.1.15,2013-01-31 20:35:00,
2013-01-31 13:40:00,46.0,26.9,30.34,East,99,0.0,6.0,47,0.00,,,0.00,585,Wunderground v.1.15,2013-01-31 20:40:00,
2013-01-31 13:45:00,45.7,26.1,30.35,ESE,123,6.0,6.0,46,0.00,,,0.00,578,Wunderground v.1.15,2013-01-31 20:45:00,
2013-01-31 13:50:00,45.9,26.3,30.35,ESE,111,0.0,1.0,46,0.00,,,0.00,571,Wunderground v.1.15,2013-01-31 20:50:00,
2013-01-31 13:55:00,46.2,26.0,30.35,East,98,0.0,4.0,45,0.00,,,0.00,566,Wunderground v.1.15,2013-01-31 20:55:00,
2013-01-31 14:00:00,46.0,25.3,30.35,SE,129,0.0,1.0,44,0.00,,,0.00,559,Wunderground v.1.15,2013-01-31 21:00:00,
2013-01-31 14:05:00,46.1,25.9,30.35,SE,132,6.0,7.0,45,0.00,,,0.00,550,Wunderground v.1.15,2013-01-31 21:05:00,
2013-01-31 14:10:00,46.6,26.9,30.35,SSE,159,0.0,1.0,46,0.00,,,0.00,541,Wunderground v.1.15,2013-01-31 21:10:00,
2013-01-31 14:15:00,47.1,26.3,30.35,SSE,159,0.0,2.0,44,0.00,,,0.00,534,Wunderground v.1.15,2013-01-31 21:15:00,
2013-01-31 14:20:00,47.1,26.3,30.35,SE,128,0.0,3.0,44,0.00,,,0.00,527,Wunderground v.1.15,2013-01-31 21:20:00,
2013-01-31 14:25:00,46.5,25.2,30.35,SSE,165,0.0,5.0,43,0.00,,,0.00,517,Wunderground v.1.15,2013-01-31 21:25:00,
2013-01-31 14:30:00,46.6,25.3,30.35,SSE,153,0.0,1.0,43,0.00,,,0.00,508,Wunderground v.1.15,2013-01-31 21:30:00,
2013-01-31 14:35:00,47.2,26.4,30.35,SE,138,0.0,1.0,44,0.00,,,0.00,497,Wunderground v.1.15,2013-01-31 21:35:00,
2013-01-31 14:40:00,47.3,25.3,30.35,SE,144,0.0,1.0,42,0.00,,,0.00,485,Wunderground v.1.15,2013-01-31 21:40:00,
2013-01-31 14:46:00,47.2,25.3,30.34,South,180,0.0,3.0,42,0.00,,,0.00,476,Wunderground v.1.15,2013-01-31 21:46:00,
2013-01-31 14:51:00,47.6,25.6,30.34,South,184,0.0,0.0,42,0.00,,,0.00,468,Wunderground v.1.15,2013-01-31 21:51:00,
2013-01-31 14:56:00,47.8,25.8,30.34,South,183,0.0,0.0,42,0.00,,,0.00,455,Wunderground v.1.15,2013-01-31 21:56:00,
2013-01-31 15:01:00,47.7,26.8,30.34,SE,142,0.0,0.0,44,0.00,,,0.00,441,Wunderground v.1.15,2013-01-31 22:01:00,
2013-01-31 15:06:00,48.2,26.2,30.34,ESE,111,0.0,0.0,42,0.00,,,0.00,432,Wunderground v.1.15,2013-01-31 22:06:00,
2013-01-31 15:11:00,47.9,25.3,30.33,ESE,111,0.0,0.0,41,0.00,,,0.00,418,Wunderground v.1.15,2013-01-31 22:11:00,
2013-01-31 15:16:00,47.9,25.9,30.33,ESE,111,0.0,0.0,42,0.00,,,0.00,406,Wunderground v.1.15,2013-01-31 22:16:00,
2013-01-31 15:21:00,47.5,26.1,30.33,ESE,111,0.0,0.0,43,0.00,,,0.00,394,Wunderground v.1.15,2013-01-31 22:21:00,
2013-01-31 15:26:00,47.8,25.2,30.33,ESE,123,0.0,0.0,41,0.00,,,0.00,380,Wunderground v.1.15,2013-01-31 22:26:00,
2013-01-31 15:31:00,47.8,25.8,30.33,SE,124,0.0,0.0,42,0.00,,,0.00,367,Wunderground v.1.15,2013-01-31 22:31:00,
2013-01-31 15:36:00,47.7,25.1,30.33,SE,124,0.0,0.0,41,0.00,,,0.00,352,Wunderground v.1.15,2013-01-31 22:36:00,
2013-01-31 15:41:00,48.3,26.2,30.33,SSE,166,0.0,0.0,42,0.00,,,0.00,339,Wunderground v.1.15,2013-01-31 22:41:00,
2013-01-31 15:46:00,48.0,25.4,30.33,ESE,117,0.0,1.0,41,0.00,,,0.00,323,Wunderground v.1.15,2013-01-31 22:46:00,
2013-01-31 15:51:00,47.4,24.9,30.33,ESE,107,0.0,0.0,41,0.00,,,0.00,309,Wunderground v.1.15,2013-01-31 22:51:00,
2013-01-31 15:56:00,47.2,26.4,30.33,East,91,3.0,9.0,44,0.00,,,0.00,295,Wunderground v.1.15,2013-01-31 22:56:00,
2013-01-31 16:01:00,46.9,26.1,30.32,ESE,103,0.0,2.0,44,0.00,,,0.00,279,Wunderground v.1.15,2013-01-31 23:01:00,
2013-01-31 16:06:00,46.8,24.9,30.32,East,96,0.0,3.0,42,0.00,,,0.00,257,Wunderground v.1.15,2013-01-31 23:06:00,
2013-01-31 16:11:00,46.8,25.5,30.32,SE,140,0.0,3.0,43,0.00,,,0.00,244,Wunderground v.1.15,2013-01-31 23:11:00,
2013-01-31 16:16:00,46.7,25.9,30.32,ESE,111,0.0,3.0,44,0.00,,,0.00,237,Wunderground v.1.15,2013-01-31 23:16:00,
2013-01-31 16:21:00,46.6,25.8,30.32,East,84,3.0,7.0,44,0.00,,,0.00,221,Wunderground v.1.15,2013-01-31 23:21:00,
2013-01-31 16:27:00,46.4,26.7,30.32,ENE,78,4.0,7.0,46,0.00,,,0.00,204,Wunderground v.1.15,2013-01-31 23:27:00,
2013-01-31 16:32:00,46.2,26.5,30.32,ENE,71,0.0,4.0,46,0.00,,,0.00,179,Wunderground v.1.15,2013-01-31 23:32:00,
2013-01-31 16:37:00,45.9,26.3,30.32,East,84,0.0,4.0,46,0.00,,,0.00,163,Wunderground v.1.15,2013-01-31 23:37:00,
2013-01-31 16:42:00,45.5,26.4,30.32,ESE,109,0.0,3.0,47,0.00,,,0.00,146,Wunderground v.1.15,2013-01-31 23:42:00,
2013-01-31 16:47:00,45.2,26.1,30.32,East,96,0.0,3.0,47,0.00,,,0.00,111,Wunderground v.1.15,2013-01-31 23:47:00,
2013-01-31 16:52:00,44.8,26.3,30.32,East,91,3.0,4.0,48,0.00,,,0.00,100,Wunderground v.1.15,2013-01-31 23:52:00,
2013-01-31 16:57:00,44.4,25.9,30.33,East,86,1.0,4.0,48,0.00,,,0.00,83,Wunderground v.1.15,2013-01-31 23:57:00,
2013-01-31 17:02:00,44.0,26.0,30.33,East,85,0.0,1.0,49,0.00,,,0.00,74,Wunderground v.1.15,2013-02-01 00:02:00,
2013-01-31 17:07:00,43.6,26.2,30.33,East,81,2.0,3.0,50,0.00,,,0.00,54,Wunderground v.1.15,2013-02-01 00:07:00,
2013-01-31 17:12:00,43.1,26.2,30.32,East,81,0.0,0.0,51,0.00,,,0.00,40,Wunderground v.1.15,2013-02-01 00:12:00,
2013-01-31 17:17:00,42.5,25.6,30.33,East,82,0.0,0.0,51,0.00,,,0.00,32,Wunderground v.1.15,2013-02-01 00:17:00,
2013-01-31 17:22:00,42.1,25.7,30.33,East,82,0.0,0.0,52,0.00,,,0.00,21,Wunderground v.1.15,2013-02-01 00:22:00,
2013-01-31 17:28:00,41.4,25.1,30.32,East,94,0.0,0.0,52,0.00,,,0.00,14,Wunderground v.1.15,2013-02-01 00:28:00,
2013-01-31 17:33:00,40.8,25.0,30.32,East,91,0.0,0.0,53,0.00,,,0.00,12,Wunderground v.1.15,2013-02-01 00:33:00,
2013-01-31 17:38:00,40.1,24.8,30.32,East,91,0.0,0.0,54,0.00,,,0.00,9,Wunderground v.1.15,2013-02-01 00:38:00,
2013-01-31 17:43:00,39.6,24.7,30.32,East,91,0.0,0.0,55,0.00,,,0.00,7,Wunderground v.1.15,2013-02-01 00:43:00,
2013-01-31 17:48:00,39.0,24.6,30.32,East,91,0.0,0.0,56,0.00,,,0.00,5,Wunderground v.1.15,2013-02-01 00:48:00,
2013-01-31 17:54:00,38.4,24.5,30.32,East,91,0.0,0.0,57,0.00,,,0.00,0,Wunderground v.1.15,2013-02-01 00:54:00,
2013-01-31 17:59:00,37.9,24.0,30.32,East,91,0.0,0.0,57,0.00,,,0.00,0,Wunderground v.1.15,2013-02-01 00:59:00,
2013-01-31 18:04:00,37.4,24.0,30.32,East,91,0.0,0.0,58,0.00,,,0.00,0,Wunderground v.1.15,2013-02-01 01:04:00,
2013-01-31 18:09:00,36.9,23.9,30.32,East,91,0.0,0.0,59,0.00,,,0.00,0,Wunderground v.1.15,2013-02-01 01:09:00,
2013-01-31 18:14:00,36.6,24.0,30.32,East,91,0.0,0.0,60,0.00,,,0.00,0,Wunderground v.1.15,2013-02-01 01:14:00,
2013-01-31 18:19:00,36.6,24.0,30.32,East,91,0.0,0.0,60,0.00,,,0.00,0,Wunderground v.1.15,2013-02-01 01:19:00,
2013-01-31 18:24:00,36.2,23.6,30.32,East,91,0.0,0.0,60,0.00,,,0.00,0,Wunderground v.1.15,2013-02-01 01:24:00,
2013-01-31 18:29:00,36.0,23.4,30.32,East,91,0.0,0.0,60,0.00,,,0.00,0,Wunderground v.1.15,2013-02-01 01:29:00,
2013-01-31 18:34:00,35.8,23.3,30.32,East,91,0.0,0.0,60,0.00,,,0.00,0,Wunderground v.1.15,2013-02-01 01:34:00,
2013-01-31 18:39:00,35.5,23.4,30.32,East,91,0.0,0.0,61,0.00,,,0.00,0,Wunderground v.1.15,2013-02-01 01:39:00,
2013-01-31 18:44:00,35.2,23.1,30.32,East,91,0.0,0.0,61,0.00,,,0.00,0,Wunderground v.1.15,2013-02-01 01:44:00,
2013-01-31 18:49:00,34.6,22.9,30.32,East,91,0.0,0.0,62,0.00,,,0.00,0,Wunderground v.1.15,2013-02-01 01:49:00,
2013-01-31 18:54:00,34.2,23.3,30.32,East,91,0.0,0.0,64,0.00,,,0.00,0,Wunderground v.1.15,2013-02-01 01:54:00,
2013-01-31 18:59:00,34.0,23.5,30.32,East,91,0.0,0.0,65,0.00,,,0.00,0,Wunderground v.1.15,2013-02-01 01:59:00,
2013-01-31 19:04:00,33.5,23.4,30.32,East,91,0.0,0.0,66,0.00,,,0.00,0,Wunderground v.1.15,2013-02-01 02:04:00,
2013-01-31 19:09:00,32.8,23.4,30.32,East,91,0.0,0.0,68,0.00,,,0.00,0,Wunderground v.1.15,2013-02-01 02:09:00,
2013-01-31 19:14:00,31.8,22.8,30.32,East,91,0.0,0.0,69,0.00,,,0.00,0,Wunderground v.1.15,2013-02-01 02:14:00,
2013-01-31 19:20:00,31.1,22.5,30.32,East,91,0.0,0.0,70,0.00,,,0.00,0,Wunderground v.1.15,2013-02-01 02:20:00,
2013-01-31 19:25:00,30.4,22.1,30.32,East,91,0.0,0.0,71,0.00,,,0.00,0,Wunderground v.1.15,2013-02-01 02:25:00,
2013-01-31 19:30:00,30.0,22.1,30.32,East,91,0.0,0.0,72,0.00,,,0.00,0,Wunderground v.1.15,2013-02-01 02:30:00,
2013-01-31 19:35:00,29.6,22.0,30.32,East,91,0.0,0.0,73,0.00,,,0.00,0,Wunderground v.1.15,2013-02-01 02:35:00,
2013-01-31 19:40:00,29.1,21.8,30.32,East,91,0.0,0.0,74,0.00,,,0.00,0,Wunderground v.1.15,2013-02-01 02:40:00,
2013-01-31 19:45:00,27.9,20.7,30.33,East,91,0.0,0.0,74,0.00,,,0.00,0,Wunderground v.1.15,2013-02-01 02:45:00,
2013-01-31 19:50:00,27.1,20.5,30.33,East,91,0.0,0.0,76,0.00,,,0.00,0,Wunderground v.1.15,2013-02-01 02:50:00,
2013-01-31 19:55:00,26.8,20.2,30.34,East,91,0.0,0.0,76,0.00,,,0.00,0,Wunderground v.1.15,2013-02-01 02:55:00,
2013-01-31 20:00:00,26.4,20.2,30.34,East,91,0.0,0.0,77,0.00,,,0.00,0,Wunderground v.1.15,2013-02-01 03:00:00,
2013-01-31 20:05:00,26.1,19.9,30.34,East,91,0.0,0.0,77,0.00,,,0.00,0,Wunderground v.1.15,2013-02-01 03:05:00,
2013-01-31 20:10:00,25.7,19.8,30.35,East,91,0.0,0.0,78,0.00,,,0.00,0,Wunderground v.1.15,2013-02-01 03:10:00,
2013-01-31 20:15:00,25.7,20.1,30.35,East,91,0.0,0.0,79,0.00,,,0.00,0,Wunderground v.1.15,2013-02-01 03:15:00,
2013-01-31 20:20:00,25.6,20.0,30.35,East,91,0.0,0.0,79,0.00,,,0.00,0,Wunderground v.1.15,2013-02-01 03:20:00,
2013-01-31 20:25:00,25.4,19.8,30.35,East,91,0.0,0.0,79,0.00,,,0.00,0,Wunderground v.1.15,2013-02-01 03:25:00,
2013-01-31 20:30:00,25.6,20.3,30.35,East,91,0.0,0.0,80,0.00,,,0.00,0,Wunderground v.1.15,2013-02-01 03:30:00,
2013-01-31 20:35:00,25.6,20.3,30.36,East,91,0.0,0.0,80,0.00,,,0.00,0,Wunderground v.1.15,2013-02-01 03:35:00,
2013-01-31 20:40:00,25.5,19.9,30.36,East,91,0.0,0.0,79,0.00,,,0.00,0,Wunderground v.1.15,2013-02-01 03:40:00,
2013-01-31 20:45:00,25.1,19.5,30.36,East,91,0.0,0.0,79,0.00,,,0.00,0,Wunderground v.1.15,2013-02-01 03:45:00,
2013-01-31 20:50:00,24.9,19.6,30.36,East,91,0.0,0.0,80,0.00,,,0.00,0,Wunderground v.1.15,2013-02-01 03:50:00,
2013-01-31 20:55:00,24.7,19.4,30.36,East,91,0.0,0.0,80,0.00,,,0.00,0,Wunderground v.1.15,2013-02-01 03:55:00,
2013-01-31 21:00:00,24.5,19.2,30.36,East,91,0.0,0.0,80,0.00,,,0.00,0,Wunderground v.1.15,2013-02-01 04:00:00,
2013-01-31 21:05:00,24.4,19.4,30.37,East,91,0.0,0.0,81,0.00,,,0.00,0,Wunderground v.1.15,2013-02-01 04:05:00,
2013-01-31 21:10:00,24.3,19.3,30.36,East,91,0.0,0.0,81,0.00,,,0.00,0,Wunderground v.1.15,2013-02-01 04:10:00,
2013-01-31 21:15:00,24.1,19.1,30.36,East,91,0.0,0.0,81,0.00,,,0.00,0,Wunderground v.1.15,2013-02-01 04:15:00,
2013-01-31 21:20:00,24.1,19.4,30.37,East,91,0.0,0.0,82,0.00,,,0.00,0,Wunderground v.1.15,2013-02-01 04:20:00,
2013-01-31 21:25:00,24.2,19.5,30.37,East,91,0.0,0.0,82,0.00,,,0.00,0,Wunderground v.1.15,2013-02-01 04:25:00,
2013-01-31 21:30:00,24.3,19.6,30.37,East,91,0.0,0.0,82,0.00,,,0.00,0,Wunderground v.1.15,2013-02-01 04:30:00,
2013-01-31 21:35:00,24.3,19.6,30.37,East,91,0.0,0.0,82,0.00,,,0.00,0,Wunderground v.1.15,2013-02-01 04:35:00,
2013-01-31 21:41:00,24.3,19.6,30.38,East,91,0.0,0.0,82,0.00,,,0.00,0,Wunderground v.1.15,2013-02-01 04:41:00,
2013-01-31 21:46:00,24.4,19.7,30.38,East,91,0.0,0.0,82,0.00,,,0.00,0,Wunderground v.1.15,2013-02-01 04:46:00,
2013-01-31 21:51:00,24.3,19.6,30.38,East,91,0.0,0.0,82,0.00,,,0.00,0,Wunderground v.1.15,2013-02-01 04:51:00,
2013-01-31 21:56:00,24.2,19.5,30.37,East,91,0.0,0.0,82,0.00,,,0.00,0,Wunderground v.1.15,2013-02-01 04:56:00,
2013-01-31 22:00:00,24.0,19.3,30.38,East,91,0.0,0.0,82,0.00,,,0.00,0,Wunderground v.1.15,2013-02-01 05:00:00,
2013-01-31 22:02:00,23.9,19.2,30.37,East,91,0.0,0.0,82,0.00,,,0.00,0,Wunderground v.1.15,2013-02-01 05:02:00,
2013-01-31 22:04:00,23.8,19.1,30.37,East,91,0.0,0.0,82,0.00,,,0.00,0,Wunderground v.1.15,2013-02-01 05:04:00,
2013-01-31 22:09:00,23.6,18.9,30.37,East,91,0.0,0.0,82,0.00,,,0.00,0,Wunderground v.1.15,2013-02-01 05:09:00,
2013-01-31 22:14:00,23.7,19.3,30.37,East,91,0.0,0.0,83,0.00,,,0.00,0,Wunderground v.1.15,2013-02-01 05:14:00,
2013-01-31 22:19:00,23.8,19.4,30.37,East,91,0.0,0.0,83,0.00,,,0.00,0,Wunderground v.1.15,2013-02-01 05:19:00,
2013-01-31 22:24:00,23.4,18.7,30.38,East,91,0.0,0.0,82,0.00,,,0.00,0,Wunderground v.1.15,2013-02-01 05:24:00,
2013-01-31 22:29:00,23.3,18.9,30.38,East,91,0.0,0.0,83,0.00,,,0.00,0,Wunderground v.1.15,2013-02-01 05:29:00,
2013-01-31 22:34:00,23.3,18.9,30.37,East,91,0.0,0.0,83,0.00,,,0.00,0,Wunderground v.1.15,2013-02-01 05:34:00,
2013-01-31 22:39:00,22.9,18.2,30.37,East,91,0.0,0.0,82,0.00,,,0.00,0,Wunderground v.1.15,2013-02-01 05:39:00,
2013-01-31 22:44:00,22.4,17.7,30.37,East,91,0.0,0.0,82,0.00,,,0.00,0,Wunderground v.1.15,2013-02-01 05:44:00,
2013-01-31 22:49:00,22.5,18.1,30.37,East,91,0.0,0.0,83,0.00,,,0.00,0,Wunderground v.1.15,2013-02-01 05:49:00,
2013-01-31 22:54:00,22.4,18.0,30.36,East,91,0.0,0.0,83,0.00,,,0.00,0,Wunderground v.1.15,2013-02-01 05:54:00,
2013-01-31 22:59:00,22.2,18.1,30.36,East,91,0.0,0.0,84,0.00,,,0.00,0,Wunderground v.1.15,2013-02-01 05:59:00,
2013-01-31 23:04:00,22.2,18.1,30.37,East,91,0.0,0.0,84,0.00,,,0.00,0,Wunderground v.1.15,2013-02-01 06:04:00,
2013-01-31 23:09:00,22.4,18.3,30.36,East,91,0.0,0.0,84,0.00,,,0.00,0,Wunderground v.1.15,2013-02-01 06:09:00,
2013-01-31 23:14:00,22.4,18.3,30.36,East,91,0.0,0.0,84,0.00,,,0.00,0,Wunderground v.1.15,2013-02-01 06:14:00,
2013-01-31 23:19:00,22.2,18.1,30.36,East,91,0.0,0.0,84,0.00,,,0.00,0,Wunderground v.1.15,2013-02-01 06:19:00,
2013-01-31 23:24:00,22.4,18.3,30.36,East,91,0.0,0.0,84,0.00,,,0.00,0,Wunderground v.1.15,2013-02-01 06:24:00,
2013-01-31 23:29:00,22.4,18.6,30.36,East,91,0.0,0.0,85,0.00,,,0.00,0,Wunderground v.1.15,2013-02-01 06:29:00,
2013-01-31 23:34:00,22.1,18.0,30.36,East,91,0.0,0.0,84,0.00,,,0.00,0,Wunderground v.1.15,2013-02-01 06:34:00,
2013-01-31 23:39:00,21.7,17.6,30.36,East,91,0.0,0.0,84,0.00,,,0.00,0,Wunderground v.1.15,2013-02-01 06:39:00,
2013-01-31 23:44:00,21.5,17.4,30.36,East,91,0.0,0.0,84,0.00,,,0.00,0,Wunderground v.1.15,2013-02-01 06:44:00,
2013-01-31 23:49:00,21.2,17.1,30.36,East,91,0.0,0.0,84,0.00,,,0.00,0,Wunderground v.1.15,2013-02-01 06:49:00,
2013-01-31 23:54:00,21.2,17.4,30.37,East,91,0.0,0.0,85,0.00,,,0.00,0,Wunderground v.1.15,2013-02-01 06:54:00,
2013-01-31 23:59:00,21.1,17.3,30.37,East,91,0.0,0.0,85,0.00,,,0.00,0,Wunderground v.1.15,2013-02-01 06:59:00,